Hilton Head Island, SC

10:46 AM EDT on October 23, 2017 (GMT -0400)
Hilton Head

Weather History for KHXD - January, 2013

Change the Weather History Date:

Monday, January 28, 2013

  Actual Average Record
Temperature  
Mean Temperature 53 °F -  
Max Temperature 60 °F 60 °F 59 °F (2014)
Min Temperature 46 °F 37 °F 33 °F (2014)
Degree Days  
Heating Degree Days 12    
Growing Degree Days 3 (Base 50)    
Moisture  
Dew Point 49 °F    
Average Humidity 94    
Maximum Humidity 100    
Minimum Humidity 68    
Precipitation  
Precipitation 0.00 in - - ()
Sea Level Pressure  
Sea Level Pressure 30.37 in    
Wind  
Wind Speed 6 mph (NNE)    
Max Wind Speed 9 mph    
Max Gust Speed -    
Visibility 8 miles    
Events      
Averages and records for this station are not official NWS values.
T = Trace of Precipitation, MM = Missing Value Source: NWS Daily Summary

Daily Weather History Graph

Daily Weather History Graph

Search for Another Location

Airport or City:

Trip Planner

Search our weather history database for the weather conditions in past years. The results will help you decide how hot, cold, wet, or windy it might be!

Date:

Astronomy

Jan. 28, 2013 Rise Set
Actual Time 7:19 AM EST 5:52 PM EST
Civil Twilight 6:53 AM EST 6:18 PM EST
Nautical Twilight 6:23 AM EST 6:48 PM EST
Astronomical Twilight 5:54 AM EST 7:17 PM EST
Moon 7:36 PM EST (1/28) 7:52 AM EST (1/28)
Length of Visible Light 11h 25m
Length of Day
10h 33m
Full, 98% of the Moon is Illuminated
Jan 28
Full
Feb 3
Last Quarter
Feb 10
New
Feb 17
First Quarter
Feb 25
Full

Hourly Weather History & Observations

Time (EST) Temp. Windchill Dew Point Humidity Pressure Visibility Wind Dir Wind Speed Gust Speed Precip Events Conditions
12:15 AM 46.4 °F 41.9 °F 46.4 °F 100% 30.45 in 10.0 mi NNE 9.2 mph - 0.00 in   Overcast
12:35 AM 46.4 °F 42.4 °F 46.4 °F 100% 30.44 in 10.0 mi NNE 8.1 mph - 0.00 in   Overcast
1:15 AM 46.4 °F 42.9 °F 46.4 °F 100% 30.43 in 10.0 mi NNE 6.9 mph - 0.00 in   Overcast
1:35 AM 48.2 °F - 48.2 °F 100% 30.43 in 10.0 mi North 5.8 mph - 0.00 in   Overcast
1:55 AM 46.4 °F 43.5 °F 46.4 °F 100% 30.43 in 10.0 mi NNE 5.8 mph - 0.00 in   Overcast
2:15 AM 46.4 °F 42.4 °F 46.4 °F 100% 30.42 in 10.0 mi NNE 8.1 mph - 0.00 in   Overcast
2:35 AM 46.4 °F 43.5 °F 46.4 °F 100% 30.41 in 10.0 mi NNE 5.8 mph - 0.00 in   Overcast
2:55 AM 46.4 °F 42.9 °F 46.4 °F 100% 30.41 in 10.0 mi North 6.9 mph - 0.00 in   Overcast
3:15 AM 46.4 °F 42.9 °F 46.4 °F 100% 30.41 in 10.0 mi North 6.9 mph - 0.00 in   Overcast
3:35 AM 46.4 °F 43.5 °F 46.4 °F 100% 30.41 in 10.0 mi North 5.8 mph - 0.00 in   Overcast
3:55 AM 46.4 °F 43.5 °F 46.4 °F 100% 30.40 in 10.0 mi NNE 5.8 mph - 0.00 in   Overcast
4:15 AM 48.2 °F - 48.2 °F 100% 30.41 in 10.0 mi NNE 5.8 mph - 0.00 in   Overcast
4:35 AM 48.2 °F - 48.2 °F 100% 30.40 in 10.0 mi NNE 6.9 mph - 0.00 in   Overcast
4:55 AM 48.2 °F - 48.2 °F 100% 30.41 in 10.0 mi North 6.9 mph - 0.00 in   Overcast
5:15 AM 48.2 °F - 48.2 °F 100% 30.40 in 10.0 mi NNE 5.8 mph - 0.00 in   Mostly Cloudy
5:35 AM 46.4 °F 43.5 °F 46.4 °F 100% 30.39 in 10.0 mi NNE 5.8 mph - 0.00 in   Scattered Clouds
6:50 AM 48.2 °F - 48.2 °F 100% 30.41 in 10.0 mi North 6.9 mph - N/A   Mostly Cloudy
7:50 AM 48.2 °F - 44.6 °F 87% 30.43 in 10.0 mi North 8.1 mph - N/A   Mostly Cloudy
8:50 AM 48.2 °F - 44.6 °F 87% 30.43 in 10.0 mi North 9.2 mph - N/A   Mostly Cloudy
9:50 AM 50.0 °F - 44.6 °F 82% 30.44 in 10.0 mi North 9.2 mph - N/A   Mostly Cloudy
10:48 AM 51.8 °F - 46.4 °F 82% 30.44 in 10.0 mi North 9.2 mph - N/A   Mostly Cloudy
11:50 AM 57.2 °F - 48.2 °F 72% 30.43 in 10.0 mi North 4.6 mph - N/A   Mostly Cloudy
12:50 PM 59.0 °F - 50.0 °F 72% 30.38 in 10.0 mi NNE 5.8 mph - N/A   Mostly Cloudy
1:50 PM 60.8 °F - 50.0 °F 68% 30.35 in 10.0 mi NE 5.8 mph - N/A   Mostly Cloudy
2:50 PM 59.0 °F - 50.0 °F 72% 30.34 in 10.0 mi ENE 4.6 mph - N/A   Scattered Clouds
3:50 PM 57.2 °F - 51.8 °F 82% 30.33 in 10.0 mi East 4.6 mph - N/A   Scattered Clouds
4:50 PM 57.2 °F - 51.8 °F 82% 30.33 in 10.0 mi East 3.5 mph - N/A   Partly Cloudy
5:50 PM 55.4 °F - 51.8 °F 88% 30.34 in 10.0 mi Calm Calm - N/A   Partly Cloudy
6:50 PM 53.6 °F - 51.8 °F 94% 30.33 in 9.0 mi Calm Calm - N/A   Clear
7:50 PM 51.8 °F - 51.8 °F 100% 30.33 in 7.0 mi Calm Calm - N/A   Clear
8:15 PM 51.8 °F - 51.8 °F 100% 30.32 in 4.0 mi Calm Calm - 0.00 in   Clear
8:35 PM 51.8 °F - 51.8 °F 100% 30.32 in 5.0 mi Calm Calm - 0.00 in   Clear
8:55 PM 50.0 °F - 50.0 °F 100% 30.32 in 5.0 mi Calm Calm - 0.00 in   Clear
9:15 PM 50.0 °F - 50.0 °F 100% 30.32 in 5.0 mi Calm Calm - 0.00 in   Clear
9:35 PM 50.0 °F - 50.0 °F 100% 30.32 in 4.0 mi Calm Calm - 0.00 in   Clear
9:55 PM 50.0 °F - 50.0 °F 100% 30.32 in 3.0 mi Calm Calm - 0.00 in   Clear
10:15 PM 50.0 °F - 50.0 °F 100% 30.32 in 4.0 mi Calm Calm - 0.00 in   Clear
10:35 PM 50.0 °F - 50.0 °F 100% 30.31 in 3.0 mi Calm Calm - 0.00 in   Clear
10:55 PM 50.0 °F - 50.0 °F 100% 30.31 in 4.0 mi Calm Calm - 0.00 in   Clear
11:15 PM 50.0 °F - 50.0 °F 100% 30.31 in 4.0 mi Calm Calm - 0.00 in   Clear
11:35 PM 50.0 °F - 50.0 °F 100% 30.31 in 4.0 mi Calm Calm - 0.00 in   Clear
11:55 PM 50.0 °F - 50.0 °F 100% 30.30 in 3.0 mi Calm Calm - 0.00 in   Clear